Location: Unspecified
(0.0000°N, 0.0000°E)
Time: 05:22:52
(UTC+00:00)

Transit 4A - Pass Details

Date: 08 October 2020
Orbit: 862 x 982 km, 66.8° (Epoch: 28 October)

Event Time Altitude Azimuth Distance (km) Brightness Sun altitude
Rises 17:15:49 0° 178° (S) 3,466 11.0 7.8°
Reaches altitude 10° 17:18:39 10° 166° (SSE) 2,540 10.2 7.1°
Maximum altitude 17:23:32 27° 109° (ESE) 1,646 8.8 5.9°
Drops below altitude 10° 17:28:31 10° 53° (NE) 2,598 9.7 4.7°
Sets 17:31:26 0° 41° (NE) 3,559 10.5 4.0°
